185P/Petriew (2001)

Japanese version
Home page
Total 6,336 html files since Dec. 4, 1995
Updated on January 16, 2007

---------------------------------------------------------------------

* Profile

Designation 185P/2001 Q2
Discovery Date August 18, 2001
Magnitude 11.0 mag
Discoverer V. A. Petriew (Cyprus Hills, SK)

* Orbital Elements

                    Epoch = 2001 Sept. 8.0 TT
     T = 2001 Sept. 1.9221 TT         Peri. = 181.9012
     e = 0.696237                     Node  = 214.1070  2000.0
     q = 0.945691 AU                  Incl. =  13.9444
       a =  3.113256 AU    n = 0.1794246    P =   5.49 years

* Finding Charts

* Magnitudes Graph

        m1 = 10.5 + 5 log d + 25.0 log r

---------------------------------------------------------------------

The orbital elements are calculated by Dr. Brian G. Marsden and printed on IAUC 8796.
The charts are made with StellaNavigator Ver.2.0 for Windows (AstroArts / ASCII).
The magnitudes graphs are made with Comet for Windows.

---------------------------------------------------------------------

Copyright(C) 1995-2008 Seiichi Yoshida (comet@aerith.net). All rights reserved.